H1 CPF 2 NER 2023 7 4 9 185 01 glonass135 H2 1600801 9135 41330 2023 7 4 0 0 0 2023 7 7 23 45 0 900 1 1 0 0 0 1 H9 10 0 60129 0.00000 0 7446757.917 23993617.248 4550047.838 10 0 60129 900.00000 0 7318083.602 23226366.827 7667723.819 10 0 60129 1800.00000 0 6957134.903 22140615.182 10636833.165 10 0 60129 2700.00000 0 6330706.146 20785426.884 13399827.763 10 0 60129 3600.00000 0 5416552.948 19217567.785 15903131.808 10 0 60129 4500.00000 0 4204588.434 17499133.591 18098175.507 10 0 60129 5400.00000 0 2697572.287 15694974.442 19942333.888 10 0 60129 6300.00000 0 911262.175 13870022.438 21399752.994 10 0 60129 7200.00000 0 -1125980.653 12086633.091 22442047.678 10 0 60129 8100.00000 0 -3374117.273 10402051.111 23048857.628 10 0 60129 9000.00000 0 -5782852.150 8866105.850 23208250.688 10 0 60129 9900.00000 0 -8293492.335 7519232.380 22916965.216 10 0 60129 10800.00000 0 -10841169.461 6390900.778 22180486.111 10 0 60129 11700.00000 0 -13357333.782 5498519.418 21012952.047 10 0 60129 12600.00000 0 -15772417.718 4846858.428 19436894.622 10 0 60129 13500.00000 0 -18018558.791 4428017.850 17482813.211 10 0 60129 14400.00000 0 -20032268.741 4221942.153 15188592.626 10 0 60129 15300.00000 0 -21756937.220 4197459.745 12598773.826 10 0 60129 16200.00000 0 -23145064.867 4313803.684 9763691.142 10 0 60129 17100.00000 0 -24160131.490 4522549.175 6738492.364 10 0 60129 18000.00000 0 -24778020.097 4769885.357 3582060.880 10 0 60129 18900.00000 0 -24987936.218 4999124.258 355861.304 10 0 60129 19800.00000 0 -24792783.283 5153339.395 -2877268.001 10 0 60129 20700.00000 0 -24208978.031 5178020.619 -6054350.785 10 0 60129 21600.00000 0 -23265713.947 5023631.024 -9113511.682 10 0 60129 22500.00000 0 -22003704.338 4647955.903 -11995192.409 10 0 60129 23400.00000 0 -20473458.941 4018142.724 -14643320.363 10 0 60129 24300.00000 0 -18733167.814 3112344.496 -17006405.933 10 0 60129 25200.00000 0 -16846282.722 1920896.109 -19038546.541 10 0 60129 26100.00000 0 -14878898.838 446973.288 -20700317.670 10 0 60129 27000.00000 0 -12897047.487 -1293293.980 -21959533.827 10 0 60129 27900.00000 0 -10964013.895 -3271258.515 -22791865.264 10 0 60129 28800.00000 0 -9137792.224 -5446725.230 -23181299.379 10 0 60129 29700.00000 0 -7468783.784 -7769412.049 -23120438.954 10 0 60129 30600.00000 0 -5997833.562 -10180841.472 -22610632.561 10 0 60129 31500.00000 0 -4754685.604 -12616583.963 -21661935.705 10 0 60129 32400.00000 0 -3756919.930 -15008759.985 -20292904.407 10 0 60129 33300.00000 0 -3009413.381 -17288696.947 -18530225.923 10 0 60129 34200.00000 0 -2504344.892 -19389631.099 -16408194.274 10 0 60129 35100.00000 0 -2221742.976 -21249342.724 -13968041.005 10 0 60129 36000.00000 0 -2130550.722 -22812615.841 -11257134.122 10 0 60129 36900.00000 0 -2190162.208 -24033420.921 -8328060.644 10 0 60129 37800.00000 0 -2352364.668 -24876730.659 -5237610.265 10 0 60129 38700.00000 0 -2563604.039 -25319894.012 -2045679.436 10 0 60129 39600.00000 0 -2767478.102 -25353511.945 1185883.277 10 0 60129 40500.00000 0 -2907352.071 -24981779.023 4394468.619 10 0 60129 41400.00000 0 -2928986.399 -24222276.992 7517912.284 10 0 60129 42300.00000 0 -2783066.143 -23105229.217 10495691.854 10 0 60129 43200.00000 0 -2427525.273 -21672247.081 13270092.373 10 0 60129 44100.00000 0 -1829567.866 -19974620.454 15787318.566 10 0 60129 45000.00000 0 -967300.636 -18071223.115 17998532.637 10 0 60129 45900.00000 0 169092.650 -16026119.904 19860798.091 10 0 60129 46800.00000 0 1576685.435 -13905974.623 21337911.755 10 0 60129 47700.00000 0 3239680.833 -11777365.967 22401108.149 10 0 60129 48600.00000 0 5129829.598 -9704122.563 23029622.701 10 0 60129 49500.00000 0 7207378.328 -7744787.470 23211102.763 10 0 60129 50400.00000 0 9422510.548 -5950317.309 22941858.039 10 0 60129 51300.00000 0 11717222.753 -4362111.625 22226944.894 10 0 60129 52200.00000 0 14027559.133 -3010454.536 21080081.960 10 0 60129 53100.00000 0 16286113.340 -1913433.852 19523397.521 10 0 60129 54000.00000 0 18424694.027 -1076383.015 17587012.369 10 0 60129 54900.00000 0 20377043.442 -491869.405 15308465.005 10 0 60129 55800.00000 0 22081495.457 -140229.686 12731989.314 10 0 60129 56700.00000 0 23483461.344 9370.427 9907657.967 10 0 60129 57600.00000 0 24537638.345 -2603.130 6890407.821 10 0 60129 58500.00000 0 25209847.289 -128005.970 3738966.330 10 0 60129 59400.00000 0 25478421.019 -313298.859 514700.338 10 0 60129 60300.00000 0 25335084.296 -502063.794 -2719589.422 10 0 60129 61200.00000 0 24785287.500 -637644.426 -5900903.453 10 0 60129 62100.00000 0 23847979.801 -665797.263 -8967282.772 10 0 60129 63000.00000 0 22554831.524 -537239.569 -11859026.851 10 0 60129 63900.00000 0 20948938.993 -209984.411 -14519865.161 10 0 60129 64800.00000 0 19083067.199 348637.396 -16898058.539 10 0 60129 65700.00000 0 17017505.198 1160355.054 -18947408.307 10 0 60129 66600.00000 0 14817625.318 2234804.520 -20628153.277 10 0 60129 67500.00000 0 12551249.413 3568893.332 -21907737.440 10 0 60129 68400.00000 0 10285932.995 5146710.425 -22761434.027 10 0 60129 69300.00000 0 8086280.987 6939984.742 -23172814.704 10 0 60129 70200.00000 0 6011406.853 8909073.325 -23134055.899 10 0 60129 71100.00000 0 4112640.260 11004437.453 -22646077.467 10 0 60129 72000.00000 0 2431577.563 13168545.070 -21718512.081 10 0 60129 72900.00000 0 998554.659 15338120.224 -20369506.924 10 0 60129 73800.00000 0 -168396.126 17446645.931 -18625362.235 10 0 60129 74700.00000 0 -1064063.740 19427016.557 -16520014.226 10 0 60129 75600.00000 0 -1696031.216 21214229.720 -14094372.637 10 0 60129 76500.00000 0 -2084106.808 22748006.220 -11395525.793 10 0 60129 77400.00000 0 -2259239.016 23975229.469 -8475828.449 10 0 60129 78300.00000 0 -2261962.509 24852103.452 -5391889.821 10 0 60129 79200.00000 0 -2140441.297 25345939.878 -2203481.055 10 0 60129 80100.00000 0 -1948192.183 25436500.507 1027617.082 10 0 60129 81000.00000 0 -1741584.716 25116839.082 4238804.384 10 0 60129 81900.00000 0 -1577223.120 24393607.966 7367866.702 10 0 60129 82800.00000 0 -1509320.489 23286816.743 10354173.842 10 0 60129 83700.00000 0 -1587175.863 21829052.692 13139847.174 10 0 60129 84600.00000 0 -1852860.474 20064195.267 15670874.929 10 0 60129 85500.00000 0 -2339210.814 18045677.590 17898154.048 10 0 60130 0.00000 0 -3068213.372 15834366.853 19778438.826 10 0 60130 900.00000 0 -4049850.227 13496149.773 21275179.366 10 0 60130 1800.00000 0 -5281454.204 11099325.664 22359231.454 10 0 60130 2700.00000 0 -6747603.533 8711910.685 23009427.622 10 0 60130 3600.00000 0 -8420561.467 6398967.442 23212995.614 10 0 60130 4500.00000 0 -10261244.920 4220069.167 22965816.823 10 0 60130 5400.00000 0 -12220683.754 2227003.635 22272518.826 10 0 60130 6300.00000 0 -14241911.765 461812.109 21146399.310 10 0 60130 7200.00000 0 -16262212.120 -1044755.059 19609181.698 10 0 60130 8100.00000 0 -18215624.709 -2274301.691 17690606.017 10 0 60130 9000.00000 0 -20035611.398 -3221323.353 15427861.709 10 0 60130 9900.00000 0 -21657767.837 -3893196.630 12864872.337 10 0 60130 10800.00000 0 -23022467.919 -4309620.604 10051445.321 10 0 60130 11700.00000 0 -24077329.217 -4501534.305 7042302.757 10 0 60130 12600.00000 0 -24779394.719 -4509556.290 3896012.245 10 0 60130 13500.00000 0 -25096937.933 -4382013.138 673838.987 10 0 60130 14400.00000 0 -25010814.128 -4172641.434 -2561457.662 10 0 60130 15300.00000 0 -24515299.810 -3938061.985 -5746858.488 10 0 60130 16200.00000 0 -23618384.315 -3735134.938 -8820324.163 10 0 60130 17100.00000 0 -22341500.957 -3618309.608 -11722014.889 10 0 60130 18000.00000 0 -20718709.130 -3637082.934 -14395464.847 10 0 60130 18900.00000 0 -18795362.268 -3833675.668 -16788687.570 10 0 60130 19800.00000 0 -16626318.351 -4241025.758 -18855190.090 10 0 60130 20700.00000 0 -14273768.949 -4881184.568 -20554875.845 10 0 60130 21600.00000 0 -11804778.571 -5764184.057 -21854819.044 10 0 60130 22500.00000 0 -9288637.874 -6887422.815 -22729896.030 10 0 60130 23400.00000 0 -6794141.592 -8235596.698 -23163262.263 10 0 60130 24300.00000 0 -4386904.595 -9781176.733 -23146666.774 10 0 60130 25200.00000 0 -2126827.254 -11485414.000 -22680599.126 10 0 60130 26100.00000 0 -65814.595 -13299829.173 -21774267.144 10 0 60130 27000.00000 0 1754157.362 -15168124.282 -20445406.787 10 0 60130 27900.00000 0 3302549.474 -17028436.878 -18719928.605 10 0 60130 28800.00000 0 4561280.809 -18815842.602 -16631408.112 10 0 60130 29700.00000 0 5525223.075 -20465002.039 -14220430.236 10 0 60130 30600.00000 0 6202149.675 -21912841.842 -11533800.559 10 0 60130 31500.00000 0 6612143.492 -23101158.674 -8623638.520 10 0 60130 32400.00000 0 6786489.950 -23979037.809 -5546369.893 10 0 60130 33300.00000 0 6766103.176 -24504985.901 -2361637.691 10 0 60130 34200.00000 0 6599552.395 -24648689.193 868847.759 10 0 60130 35100.00000 0 6340772.200 -24392324.024 4082497.731 10 0 60130 36000.00000 0 6046553.429 -23731364.988 7217050.433 10 0 60130 36900.00000 0 5773920.409 -22674856.852 10211769.847 10 0 60130 37800.00000 0 5577504.995 -21245138.594 13008615.380 10 0 60130 38700.00000 0 5507027.923 -19477030.490 15553360.221 10 0 60130 39600.00000 0 5604993.535 -17416517.385 17796637.237 10 0 60130 40500.00000 0 5904695.056 -15118982.044 19694892.723 10 0 60130 41400.00000 0 6428614.804 -12647061.020 21211229.992 10 0 60130 42300.00000 0 7187287.336 -10068211.034 22316126.768 10 0 60130 43200.00000 0 8178674.498 -7452085.882 22988012.679 10 0 60130 44100.00000 0 9388080.096 -4867831.695 23213695.549 10 0 60130 45000.00000 0 10788609.618 -2381412.019 22988627.853 10 0 60130 45900.00000 0 12342157.698 -53073.076 22317007.521 10 0 60130 46800.00000 0 14000883.996 2064945.913 21211710.199 10 0 60130 47700.00000 0 15709117.461 3930362.326 19694053.160 10 0 60130 48600.00000 0 17405610.753 5512378.496 17793394.197 10 0 60130 49500.00000 0 19026051.388 6792724.998 15546572.060 10 0 60130 50400.00000 0 20505724.771 7766175.122 12997198.223 10 0 60130 51300.00000 0 21782217.301 8440508.965 10194812.925 10 0 60130 52200.00000 0 22798045.361 8835928.825 7193921.442 10 0 60130 53100.00000 0 23503098.593 8983950.908 4052929.332 10 0 60130 54000.00000 0 23856793.301 8925820.838 832997.853 10 0 60130 54900.00000 0 23829843.873 8710520.982 -2403157.363 10 0 60130 55800.00000 0 23405576.208 8392455.236 -5592499.731 10 0 60130 56700.00000 0 22580726.688 8028910.892 -8672911.853 10 0 60130 57600.00000 0 21365692.291 7677406.775 -11584416.804 10 0 60130 58500.00000 0 19784220.927 7393041.669 -14270355.438 10 0 60130 59400.00000 0 17872555.111 7225956.774 -16678495.758 10 0 60130 60300.00000 0 15678065.297 7219020.845 -18762052.089 10 0 60130 61200.00000 0 13257430.848 7405836.671 -20480593.923 10 0 60130 62100.00000 0 10674445.490 7809153.595 -21800826.993 10 0 60130 63000.00000 0 7997539.582 8439753.071 -22697231.951 10 0 60130 63900.00000 0 5297123.030 9295854.001 -23152549.130 10 0 60130 64800.00000 0 2642859.597 10363062.435 -23158101.075 10 0 60130 65700.00000 0 100985.655 11614867.224 -22713947.751 10 0 60130 66600.00000 0 -2268215.901 13013660.338 -21828872.512 10 0 60130 67500.00000 0 -4412682.878 14512238.665 -20520200.102 10 0 60130 68400.00000 0 -6290489.537 16055724.180 -18813450.962 10 0 60130 69300.00000 0 -7871333.115 17583822.029 -16741839.046 10 0 60130 70200.00000 0 -9137531.355 19033322.182 -14345623.161 10 0 60130 71100.00000 0 -10084491.617 20340740.297 -11671324.425 10 0 60130 72000.00000 0 -10720634.041 21444987.647 -8770824.874 10 0 60130 72900.00000 0 -11066773.858 22289958.867 -5700364.444 10 0 60130 73800.00000 0 -11154990.311 22826929.622 -2519455.367 10 0 60130 74700.00000 0 -11027030.873 23016664.192 710265.312 10 0 60130 75600.00000 0 -10732318.673 22831144.961 3926223.316 10 0 60130 76500.00000 0 -10325647.442 22254851.490 7066112.259 10 0 60130 77400.00000 0 -9864661.199 21285535.447 10069093.386 10 0 60130 78300.00000 0 -9407224.765 19934458.590 12876967.199 10 0 60130 79200.00000 0 -9008795.647 18226083.133 15435294.831 10 0 60130 80100.00000 0 -8719907.785 16197226.516 17694447.950 10 0 60130 81000.00000 0 -8583872.907 13895714.634 19610567.400 10 0 60130 81900.00000 0 -8634796.301 11378588.277 21146412.518 10 0 60130 82800.00000 0 -8895990.770 8709935.963 22272084.979 10 0 60130 83700.00000 0 -9378856.097 5958441.807 22965613.350 10 0 60130 84600.00000 0 -10082272.147 3194748.839 23213386.953 10 0 60130 85500.00000 0 -10992532.432 488746.067 23010430.268 10 0 60131 0.00000 0 -12083822.466 -2093108.868 22360512.007 10 0 60131 900.00000 0 -13319225.206 -4490322.364 21276085.394 10 0 60131 1800.00000 0 -14652211.600 -6650644.561 19778060.671 10 0 60131 2700.00000 0 -16028557.194 -8532005.990 17895411.824 10 0 60131 3600.00000 0 -17388604.045 -10104026.951 15664624.723 10 0 60131 4500.00000 0 -18669774.191 -11349037.865 13128995.997 10 0 60131 5400.00000 0 -19809229.028 -12262567.527 10337795.496 10 0 60131 6300.00000 0 -20746562.303 -12853278.813 7345308.107 10 0 60131 7200.00000 0 -21426412.379 -13142354.738 4209773.559 10 0 60131 8100.00000 0 -21800882.391 -13162361.269 992245.267 10 0 60131 9000.00000 0 -21831664.734 -12955635.752 -2244608.770 10 0 60131 9900.00000 0 -21491778.691 -12572270.232 -5437738.427 10 0 60131 10800.00000 0 -20766846.502 -12067776.442 -8524951.906 10 0 60131 11700.00000 0 -19655852.911 -11500532.917 -11446138.624 10 0 60131 12600.00000 0 -18171355.400 -10929123.971 -14144449.292 10 0 60131 13500.00000 0 -16339135.909 -10409684.696 -16567409.223 10 0 60131 14400.00000 0 -14197308.636 -9993365.581 -18667942.447 10 0 60131 15300.00000 0 -11794921.708 -9724024.846 -20405286.419 10 0 60131 16200.00000 0 -9190111.700 -9636246.421 -21745779.715 10 0 60131 17100.00000 0 -6447888.670 -9753767.241 -22663507.983 10 0 60131 18000.00000 0 -3637644.507 -10088379.783 -23140796.467 10 0 60131 18900.00000 0 -830488.524 -10639355.438 -23168540.629 10 0 60131 19800.00000 0 1903479.092 -11393412.150 -22746369.653 10 0 60131 20700.00000 0 4497843.219 -12325226.874 -21882640.738 10 0 60131 21600.00000 0 6892389.009 -13398470.544 -20594265.299 10 0 60131 22500.00000 0 9035353.292 -14567321.581 -18906371.188 10 0 60131 23400.00000 0 10885320.308 -15778394.021 -16851808.023 10 0 60131 24300.00000 0 12412684.841 -16972999.296 -14470505.473 10 0 60131 25200.00000 0 13600623.906 -18089646.880 -11808696.972 10 0 60131 26100.00000 0 14445538.446 -19066679.156 -8918023.793 10 0 60131 27000.00000 0 14956948.504 -19844930.327 -5854536.588 10 0 60131 27900.00000 0 15156847.945 -20370298.242 -2677613.367 10 0 60131 28800.00000 0 15078547.107 -20596121.545 551185.470 10 0 60131 29700.00000 0 14765053.000 -20485262.689 3769303.286 10 0 60131 30600.00000 0 14267055.758 -20011809.497 6914392.032 10 0 60131 31500.00000 0 13640606.307 -19162323.759 9925512.806 10 0 60131 32400.00000 0 12944583.018 -17936584.127 12744309.415 10 0 60131 33300.00000 0 12238053.714 -16347791.461 15316132.730 10 0 60131 34200.00000 0 11577643.748 -14422227.010 17591094.575 10 0 60131 35100.00000 0 11015020.522 -12198376.400 19525031.273 10 0 60131 36000.00000 0 10594599.998 -9725554.406 21080358.694 10 0 60131 36900.00000 0 10351571.553 -7062086.113 22226802.567 10 0 60131 37800.00000 0 10310324.379 -4273118.380 22941990.124 10 0 60131 38700.00000 0 10483342.062 -1428150.843 23211891.560 10 0 60131 39600.00000 0 10870612.640 1401612.536 23031102.415 10 0 60131 40500.00000 0 11459580.050 4145982.728 22402960.801 10 0 60131 41400.00000 0 12225640.395 6738463.811 21339496.284 10 0 60131 42300.00000 0 13133163.635 9118779.410 19861210.314 10 0 60131 43200.00000 0 14136999.153 11235142.666 17996691.224 10 0 60131 44100.00000 0 15184403.080 13046175.242 15782069.996 10 0 60131 45000.00000 0 16217307.039 14522395.112 13260326.291 10 0 60131 45900.00000 0 17174833.124 15647210.712 10480457.326 10 0 60131 46800.00000 0 17995948.867 16417379.613 7496525.270 10 0 60131 47700.00000 0 18622149.503 16842912.418 4366601.616 10 0 60131 48600.00000 0 19000053.116 16946426.201 1151629.501 10 0 60131 49500.00000 0 19083797.626 16761975.331 -2085773.118 10 0 60131 50400.00000 0 18837136.698 16333409.962 -5282544.903 10 0 60131 51300.00000 0 18235144.480 15712332.852 -8376421.847 10 0 60131 52200.00000 0 17265455.735 14955742.376 -11307161.672 10 0 60131 53100.00000 0 15928987.954 14123463.054 -14017726.697 10 0 60131 54000.00000 0 14240114.230 13275473.785 -16455401.039 10 0 60131 54900.00000 0 12226279.262 12469248.086 -18572819.714 10 0 60131 55800.00000 0 9927074.527 11757219.707 -20328889.234 10 0 60131 56700.00000 0 7392811.621 11184481.141 -21689581.990 10 0 60131 57600.00000 0 4682653.680 10786812.171 -22628589.496 10 0 60131 58500.00000 0 1862383.265 10589121.134 -23127822.676 10 0 60131 59400.00000 0 -998100.164 10604363.742 -23177750.565 10 0 60131 60300.00000 0 -3827449.156 10832983.890 -22777572.040 10 0 60131 61200.00000 0 -6555593.014 11262898.806 -21935218.361 10 0 60131 62100.00000 0 -9116406.015 11870027.987 -20667187.505 10 0 60131 63000.00000 0 -11450209.453 12619342.682 -18998214.259 10 0 60131 63900.00000 0 -13506005.005 13466391.063 -16960783.035 10 0 60131 64800.00000 0 -15243348.315 14359234.460 -14594493.113 10 0 60131 65700.00000 0 -16633786.654 15240713.100 -11945288.657 10 0 60131 66600.00000 0 -17661802.657 16050946.129 -9064568.310 10 0 60131 67500.00000 0 -18325226.543 16729961.028 -6008191.346 10 0 60131 68400.00000 0 -18635101.268 17220342.199 -2835399.277 10 0 60131 69300.00000 0 -18615007.613 17469787.681 392326.558 10 0 60131 70200.00000 0 -18299878.648 17433466.791 3612449.693 10 0 60131 71100.00000 0 -17734354.015 17076079.693 6762583.046 10 0 60131 72000.00000 0 -16970743.624 16373532.320 9781690.282 10 0 60131 72900.00000 0 -16066686.390 15314155.943 12611261.277 10 0 60131 73800.00000 0 -15082602.282 13899419.559 15196439.424 10 0 60131 74700.00000 0 -14079044.411 12144104.266 17487079.456 10 0 60131 75600.00000 0 -13114061.983 10075930.961 19438715.839 10 0 60131 76500.00000 0 -12240684.421 7734655.297 21013423.482 10 0 60131 77400.00000 0 -11504631.959 5170665.787 22180554.460 10 0 60131 78300.00000 0 -10942348.634 2443141.499 22917336.660 10 0 60131 79200.00000 0 -10579440.311 -382156.033 23209322.783 10 0 60131 80100.00000 0 -10429583.659 -3235366.730 23050680.645 10 0 60131 81000.00000 0 -10493952.565 -6045190.166 22444318.566 10 0 60131 81900.00000 0 -10761186.955 -8741608.959 21401842.542 10 0 60131 82800.00000 0 -11207906.441 -11258565.065 19943344.913 10 0 60131 83700.00000 0 -11799748.314 -13536478.213 18097027.411 10 0 60131 84600.00000 0 -12492887.210 -15524501.770 15898664.626 10 0 60131 85500.00000 0 -13235973.250 -17182421.792 13390917.199 10 0 60132 0.00000 0 -13972407.249 -18482119.471 10622507.456 10 0 60132 900.00000 0 -14642857.316 -19408536.022 7647271.424 10 0 60132 1800.00000 0 -15187909.023 -19960097.577 4523109.376 10 0 60132 2700.00000 0 -15550737.415 -20148584.442 1310850.723 10 0 60132 3600.00000 0 -15679685.503 -19998448.708 -1926940.216 10 0 60132 4500.00000 0 -15530638.937 -19545610.317 -5127194.554 10 0 60132 5400.00000 0 -15069094.677 -18835783.298 -8227579.740 10 0 60132 6300.00000 0 -14271834.583 -17922404.133 -11167725.429 10 0 60132 7200.00000 0 -13128131.870 -16864251.288 -13890409.021 10 0 60132 8100.00000 0 -11640438.440 -15722857.993 -16342676.704 10 0 60132 9000.00000 0 -9824523.431 -14559828.901 -18476877.425 10 0 60132 9900.00000 0 -7709056.793 -13434174.998 -20251589.287 10 0 60132 10800.00000 0 -5334655.304 -12399779.803 -21632420.514 10 0 60132 11700.00000 0 -2752431.027 -11503103.803 -22592669.925 10 0 60132 12600.00000 0 -22103.099 -10781223.399 -23113834.953 10 0 60132 13500.00000 0 2790248.313 -10260286.055 -23185958.420 10 0 60132 14400.00000 0 5614692.405 -9954445.364 -22807808.531 10 0 60132 15300.00000 0 8380118.353 -9865319.378 -21986889.720 10 0 60132 16200.00000 0 11016955.770 -9981993.398 -20739285.159 10 0 60132 17100.00000 0 13459832.935 -10281565.672 -19089334.781 10 0 60132 18000.00000 0 15650063.512 -10730211.786 -17069155.600 10 0 60132 18900.00000 0 17537859.876 -11284722.018 -14718013.933 10 0 60132 19800.00000 0 19084182.556 -11894446.338 -12081561.732 10 0 60132 20700.00000 0 20262150.447 -12503564.859 -9210951.714 10 0 60132 21600.00000 0 21057954.632 -13053588.129 -6161848.199 10 0 60132 22500.00000 0 21471239.208 -13485982.096 -2993352.419 10 0 60132 23400.00000 0 21514934.516 -13744807.486 233137.214 10 0 60132 24300.00000 0 21214550.866 -13779262.677 3455108.223 10 0 60132 25200.00000 0 20606963.143 -13546023.233 6610138.119 10 0 60132 26100.00000 0 19738737.732 -13011279.624 9637096.440 10 0 60132 27000.00000 0 18664072.140 -12152387.221 12477322.018 10 0 60132 27900.00000 0 17442433.646 -10959058.693 15075753.170 10 0 60132 28800.00000 0 16135995.733 -9434047.875 17381989.420 10 0 60132 29700.00000 0 14806979.349 -7593295.167 19351264.743 10 0 60132 30600.00000 0 13515009.927 -5465526.796 20945313.964 10 0 60132 31500.00000 0 12314600.395 -3091322.769 22133115.902 10 0 60132 32400.00000 0 11252865.251 -521690.326 22891499.079 10 0 60132 33300.00000 0 10367561.165 2183799.865 23205598.281 10 0 60132 34200.00000 0 9685536.239 4959239.289 23069152.797 10 0 60132 35100.00000 0 9221653.134 7734878.320 22484640.014 10 0 60132 36000.00000 0 8978231.684 10439791.948 21463240.899 10 0 60132 36900.00000 0 8945035.111 13004604.811 20024636.940 10 0 60132 37800.00000 0 9099801.166 15364162.943 18196641.282 10 0 60132 38700.00000 0 9409296.632 17460041.281 16014669.916 10 0 60132 39600.00000 0 9830851.421 19242782.245 13521062.075 10 0 60132 40500.00000 0 10314307.932 20673771.481 10764262.129 10 0 60132 41400.00000 0 10804303.343 21726671.755 7797878.297 10 0 60132 42300.00000 0 11242787.945 22388354.283 4679636.390 10 0 60132 43200.00000 0 11571672.095 22659287.981 1470249.298 10 0 60132 44100.00000 0 11735488.466 22553370.155 -1767775.061 10 0 60132 45000.00000 0 11683955.320 22097205.955 -4971362.905 10 0 60132 45900.00000 0 11374330.545 21328867.636 -8078115.614 10 0 60132 46800.00000 0 10773455.144 20296186.973 -11027536.980 10 0 60132 47700.00000 0 9859398.175 19054654.145 -13762221.402 10 0 60132 48600.00000 0 8622632.378 17665013.201 -16228978.745 10 0 60132 49500.00000 0 7066689.912 16190656.859 -18379873.196 10 0 60132 50400.00000 0 5208269.979 14694931.678 -20173155.511 10 0 60132 51300.00000 0 3076793.490 13238467.873 -21574070.596 10 0 60132 52200.00000 0 713423.358 11876646.473 -22555525.261 10 0 60132 53100.00000 0 -1830408.518 10657310.097 -23098603.974 10 0 60132 54000.00000 0 -4494905.984 9618812.778 -23192923.698 10 0 60132 54900.00000 0 -7214165.700 8788489.470 -22836822.111 10 0 60132 55800.00000 0 -9918692.716 8181607.916 -22037376.692 10 0 60132 56700.00000 0 -12538070.385 7800845.068 -20810255.372 10 0 60132 57600.00000 0 -15003674.314 7636308.201 -19179402.440 10 0 60132 58500.00000 0 -17251318.473 7666098.121 -17176566.373 10 0 60132 59400.00000 0 -19223724.656 7857389.321 -14840679.074 10 0 60132 60300.00000 0 -20872713.881 8167980.501 -12217098.553 10 0 60132 61200.00000 0 -22161029.889 8548249.403 -9356729.687 10 0 60132 62100.00000 0 -23063720.185 8943429.225 -6315039.756 10 0 60132 63000.00000 0 -23569018.309 9296110.508 -3150987.529 10 0 60132 63900.00000 0 -23678691.693 9548863.156 74113.784 10 0 60132 64800.00000 0 -23407841.541 9646868.203 3297778.052 10 0 60132 65700.00000 0 -22784163.848 9540448.603 6457549.805 10 0 60132 66600.00000 0 -21846702.966 9187392.487 9492206.959 10 0 60132 67500.00000 0 -20644150.128 8554970.977 12342939.857 10 0 60132 68400.00000 0 -19232758.091 7621565.261 14954484.308 10 0 60132 69300.00000 0 -17673958.949 6377833.883 17276187.163 10 0 60132 70200.00000 0 -16031784.342 4827370.141 19262984.342 10 0 60132 71100.00000 0 -14370195.402 2986820.605 20876272.851 10 0 60132 72000.00000 0 -12750433.478 885457.988 22084660.288 10 0 60132 72900.00000 0 -11228501.814 -1435775.857 22864577.557 10 0 60132 73800.00000 0 -9852882.947 -3925719.133 23200742.943 10 0 60132 74700.00000 0 -8662586.964 -6524873.322 23086468.264 10 0 60132 75600.00000 0 -7685612.150 -9167644.174 22523800.642 10 0 60132 76500.00000 0 -6937882.530 -11784849.065 21523496.262 10 0 60132 77400.00000 0 -6422707.191 -14306387.816 20104825.589 10 0 60132 78300.00000 0 -6130784.471 -16663966.792 18295212.547 10 0 60132 79200.00000 0 -6040751.355 -18793763.273 16129713.450 10 0 60132 80100.00000 0 -6120255.400 -20638918.951 13650344.601 10 0 60132 81000.00000 0 -6327504.261 -22151757.984 10905270.733 10 0 60132 81900.00000 0 -6613227.400 -23295636.167 7947869.448 10 0 60132 82800.00000 0 -6922966.659 -24046342.875 4835689.721 10 0 60132 83700.00000 0 -7199597.997 -24392996.219 1629325.044 10 0 60132 84600.00000 0 -7385976.402 -24338393.240 -1608776.140 10 0 60132 85500.00000 0 -7427590.470 -23898800.176 -4815538.394 99